Regional Weather Roundup
Issued by NWS State College, PA

Home | Current Version | Previous Version | Text Only | Print | Product List | Glossary Off
Versions: 1 2 3 4 5 6 7 8 9 10 11 12 13 14 15 16 17 18 19 20 21 22 23 24 25 26 27 28 29 30 31 32 33 34 35 36 37 38 39 40 41 42 43 44 45 46 47 48 49 50

093
ASUS41 KCTP 251703
RWRCTP

REGIONAL WEATHER ROUNDUP
NATIONAL WEATHER SERVICE STATE COLLEGE PA
1200 PM EST SAT FEB 25 2017

Note: "fair" indicates few or no clouds below 12,000 feet with no
significant weather and/or obstructions to visibility.

* = STATION THAT DOES NOT REPORT PRECIPITATION /E.G. RAIN...SNOW...ETC/
    THUNDER OR FOG.

PAZ002>004-007>009-013>016-020>023-029>032-251800-
WESTERN PENNSYLVANIA

CITY           SKY/WX    TMP DP  RH WIND       PRES   REMARKS
ERIE           CLOUDY    43  32  65 W17G30    29.57R
MEADVILLE      CLOUDY    45  32  60 W15G21    29.56S
FRANKLIN*      CLOUDY    45  34  65 W13G22    29.57F
NEW CASTLE     CLOUDY    47  33  58 SW18G24   29.60S
BEAVER COUNTY  PTSUNNY   46  36  66 W14G23    29.60R
BUTLER*        CLOUDY    46  37  71 W14G23    29.61R
PITTSBURGH INT CLOUDY    47  37  68 W13G26    29.61R
PITTSBURGH     CLOUDY    47  36  65 W16G22    29.62R
INDIANA*       CLOUDY    45  43  93 W9        29.62R
LATROBE        CLOUDY    45  43  93 W9        29.62R
WASHINGTON CO* CLOUDY    46  37  71 W13G21    29.66R
$$

PAZ004>006-010>012-017>019-024>028-033>037-041-042-045-046-049>053-251800-
CENTRAL PENNSYLVANIA

CITY           SKY/WX    TMP DP  RH WIND       PRES   REMARKS
BRADFORD       LGT RAIN  42  41  96 W12       29.51S
DUBOIS         LGT RAIN  44  40  85 SW13      29.54R FOG
CLEARFIELD       N/A    N/A N/A N/A MISG      29.53R
JOHNSTOWN      RAIN      43  42  97 W14G29    29.56R FOG
ALTOONA        CLOUDY    57  52  83 S12       29.52F
STATE COLLEGE  LGT RAIN  55  52  88 S16       29.50F
WILLIAMSPORT   LGT RAIN  61  56  83 S8        29.51F
SELINSGROVE    LGT RAIN  63  57  81 S6        29.53F
FT INDIANTOWN  CLOUDY    65  61  86 S8        29.54F
CAPITAL CITY   CLOUDY    69  56  62 S8        29.54F
HARRISBURG     CLOUDY    65  57  75 S5        29.53F
YORK           CLOUDY    69  58  67 S15G22    29.53F
$$

PAZ038>040-043-044-047-048-054-055-060>062-067>071-251800-
EASTERN PENNSYLVANIA

CITY           SKY/WX    TMP DP  RH WIND       PRES   REMARKS
SCRANTON       CLOUDY    67  56  67 S12G25    29.53F
MOUNT POCONO   CLOUDY    58  56  93 S17G29    29.60F
ALLENTOWN      PTSUNNY   70  56  61 S14       29.59F
QUAKERTOWN*    PTSUNNY   68  57  68 S9G22     29.61F
READING        CLOUDY    69  59  70 S14G25    29.56F
LANCASTER      PTSUNNY   68  59  73 S16G23    29.56F
COATESVILLE    PTSUNNY   70  57  64 S16       29.61F
POTTSTOWN      PTSUNNY   69  56  62 S12G21    29.61F
BLUE BELL      PTSUNNY   70  57  64 S13G20    29.61F
DOYLESTOWN     CLOUDY    69  56  62 S14G21    29.60F
WILLOW GROVE   NOT AVBL
NORTH PHILA    MOSUNNY   73  55  53 S15G25    29.63F
PHILADELPHIA   PTSUNNY   71  56  58 S14       29.63F
$$




USA.gov is the U.S. government's official web portal to all federal, state and local government web resources and services.